Weather History for KDGW - January, 2012

Change the Weather History Date:

Saturday, January 28, 2012

  Actual Average Record
Temperature  
Mean Temperature 25 °F 25 °F  
Max Temperature 38 °F 38 °F 56 °F (2011)
Min Temperature 11 °F 12 °F 0 °F (2014)
Degree Days  
Heating Degree Days 40 40  
Month to date heating degree days 1020 1122  
Since 1 July heating degree days 3969 4211  
Cooling Degree Days 0 0  
Month to date cooling degree days 0 0  
Year to date cooling degree days 0 0  
Moisture  
Dew Point 4 °F    
Average Humidity 44    
Maximum Humidity 67    
Minimum Humidity 21    
Precipitation  
Precipitation 0.00 in 0.01 in 0.17 in (2001)
Month to date precipitation 0.17 0.32  
Year to date precipitation 0.17 0.32  
Sea Level Pressure  
Sea Level Pressure 30.29 in    
Wind  
Wind Speed 11 mph (WNW)    
Max Wind Speed 31 mph    
Max Gust Speed 37 mph    
Visibility 10 miles    
Events      
T = Trace of Precipitation, MM = Missing Value Source: NWS Daily Summary

Daily Weather History Graph

Daily Weather History Graph

Search for Another Location

Airport or City:

Trip Planner

Search our weather history database for the weather conditions in past years. The results will help you decide how hot, cold, wet, or windy it might be!

Date:

Astronomy

Jan. 28, 2012 Rise Set
Actual Time 7:20 AM MST 5:08 PM MST
Civil Twilight 6:50 AM MST 5:39 PM MST
Nautical Twilight 6:16 AM MST 6:13 PM MST
Astronomical Twilight 5:42 AM MST 6:46 PM MST
Moon 9:34 AM MST (1/28) 11:10 PM MST (1/28)
Length of Visible Light 10h 49m
Length of Day
9h 48m
Waxing Crescent, 28% of the Moon is Illuminated
Jan 28
Waxing Crescent
Jan 30
First Quarter
Feb 7
Full
Feb 14
Last Quarter
Feb 21
New

Hourly Weather History & Observations

Time (MST) Temp. Windchill Dew Point Humidity Pressure Visibility Wind Dir Wind Speed Gust Speed Precip Events Conditions
12:53 AM 16.0 °F 10.4 °F 6.1 °F 65% 30.32 in 10.0 mi NNW 3.5 mph - N/A   Clear
1:53 AM 21.9 °F 8.2 °F 3.0 °F 44% 30.27 in 10.0 mi WNW 16.1 mph - N/A   Clear
2:53 AM 21.9 °F 7.3 °F -0.0 °F 38% 30.27 in 10.0 mi WNW 18.4 mph 25.3 mph N/A   Partly Cloudy
3:53 AM 19.9 °F 6.7 °F 1.0 °F 44% 30.31 in 10.0 mi WNW 13.8 mph - N/A   Clear
4:53 AM 17.1 °F 5.0 °F 1.9 °F 52% 30.34 in 10.0 mi NNW 10.4 mph - N/A   Clear
5:53 AM 17.1 °F 6.6 °F 3.0 °F 54% 30.37 in 10.0 mi NNW 8.1 mph - N/A   Clear
6:53 AM 17.1 °F 7.6 °F 3.0 °F 54% 30.40 in 10.0 mi NNW 6.9 mph - N/A   Clear
8:53 AM 23.0 °F 15.8 °F 5.0 °F 46% 30.38 in 10.0 mi NW 5.8 mph - N/A   Clear
9:53 AM 28.0 °F - 3.9 °F 36% 30.38 in 10.0 mi Calm Calm - N/A   Clear
10:53 AM 32.0 °F 18.9 °F -0.0 °F 26% 30.35 in 10.0 mi WNW 24.2 mph 31.1 mph N/A   Clear
11:53 AM 33.1 °F 21.9 °F -0.0 °F 24% 30.32 in 10.0 mi West 18.4 mph 28.8 mph N/A   Clear
12:53 PM 35.1 °F 22.7 °F 1.0 °F 24% 30.28 in 10.0 mi West 25.3 mph 31.1 mph N/A   Clear
1:53 PM 37.0 °F 25.9 °F 1.9 °F 23% 30.24 in 10.0 mi West 23.0 mph 29.9 mph N/A   Clear
3:53 PM 37.0 °F 25.6 °F 3.9 °F 25% 30.23 in 10.0 mi WNW 24.2 mph 29.9 mph N/A   Clear
4:53 PM 33.1 °F 22.6 °F 6.1 °F 32% 30.26 in 10.0 mi West 16.1 mph 25.3 mph N/A   Clear
5:53 PM 27.0 °F - 7.0 °F 43% 30.28 in 10.0 mi Calm Calm - N/A   Clear
6:53 PM 27.0 °F - 7.0 °F 43% 30.29 in 10.0 mi Calm Calm - N/A   Clear
7:53 PM 26.1 °F - 8.1 °F 47% 30.28 in 10.0 mi Calm Calm - N/A   Clear
8:53 PM 25.0 °F - 8.1 °F 49% 30.26 in 10.0 mi Calm Calm - N/A   Clear
9:53 PM 23.0 °F - 8.1 °F 53% 30.24 in 10.0 mi Calm Calm - N/A   Clear
10:53 PM 30.0 °F 20.5 °F 8.1 °F 40% 30.19 in 10.0 mi NW 11.5 mph 18.4 mph N/A   Clear
11:53 PM 32.0 °F 20.8 °F 8.1 °F 37% 30.16 in 10.0 mi WNW 17.3 mph 26.5 mph N/A   Clear